Regional Weather Roundup
Issued by NWS

Home | Current Version | Previous Version | Text Only | Print | Product List | Glossary Off
Versions: 1 2 3 4 5 6 7 8 9 10 11 12 13 14 15 16 17 18 19 20 21 22 23 24 25 26 27 28 29 30 31 32 33 34 35 36 37 38 39 40 41 42 43 44 45 46 47 48 49 50

475
ASUS43 KLSX 250007
RWRMO

WEATHER SUMMARY FOR MISSOURI
NATIONAL WEATHER SERVICE SPRINGFIELD MO
600 PM CST FRI NOV 24 2017

NOTE: "FAIR" INDICATES FEW OR NO CLOUDS BELOW 12,000 FEET WITH NO
       SIGNIFICANT WEATHER AND/OR OBSTRUCTIONS TO VISIBILITY.
       CURRENT SKY AND/OR WEATHER CONDITIONS ARE NOT AVAILABLE FOR
       CHILLICOTHE AND FARMINGTON.

MOZ001>031-035>038-043-044-053-054-250100-
...NORTHERN AND WESTERN MISSOURI...

CITY           SKY/WX    TMP DP  RH WIND       PRES   REMARKS
KANSAS CTY INT MOCLDY    66  42  41 N15G26    29.69R
6HR MIN TEMP:  66; 6HR MAX TEMP:  72;

KANSAS C DTWN  CLEAR     69  41  36 NW16      29.66R
6HR MIN TEMP:  63; 6HR MAX TEMP:  74;

LEE`S SUMMIT   PTCLDY    65  40  39 SW7       29.66R
6HR MIN TEMP:  63; 6HR MAX TEMP:  74;

ST JOSEPH      PTCLDY    61  41  47 N12       29.70R
6HR MIN TEMP:  61; 6HR MAX TEMP:  75;

CHILLICOTHE      N/A     66  43  43 N9G23     29.66R
6HR MIN TEMP:  66; 6HR MAX TEMP:  75;

KIRKSVILLE     CLOUDY    65  40  39 W13       29.61R
6HR MIN TEMP:  65; 6HR MAX TEMP:  73;


$$
MOZ066>068-077>081-088>096-101>105-250100-
...SOUTHWEST MISSOURI...

CITY           SKY/WX    TMP DP  RH WIND       PRES   REMARKS
SPRINGFIELD    CLOUDY    64  36  35 SW10      29.72R
6HR MIN TEMP:  64; 6HR MAX TEMP:  74;

JOPLIN         PTCLDY    66  38  35 SW6       29.73R
6HR MIN TEMP:  66; 6HR MAX TEMP:  75; 6HR PCP: TRACE;

BRANSON        MOCLDY    64  32  29 S10G17    29.76S

$$
MOZ032>034-039>042-045>050-055>058-069>072-250100-
...CENTRAL MISSOURI...

CITY           SKY/WX    TMP DP  RH WIND       PRES   REMARKS
COLUMBIA       PTCLDY    63  37  38 SW12      29.63R
6HR MIN TEMP:  63; 6HR MAX TEMP:  74;

JEFFERSON CITY MOCLDY    69  36  29 SW8       29.63R
6HR MIN TEMP:  69; 6HR MAX TEMP:  76;

ROLLA          CLOUDY    66  36  32 SW15G25   29.67R
6HR MIN TEMP:  66; 6HR MAX TEMP:  73;

SEDALIA        PTCLDY    70  41  34 SW15G23   29.65R
6HR MIN TEMP:  68; 6HR MAX TEMP:  76; 6HR PCP: TRACE;

WHITEMAN AFB   CLOUDY    67  38  35 SW13      29.60R
WARRENSBURG    CLOUDY    64  37  36 SW10      29.63R
OSAGE BEACH    CLOUDY    65  37  35 S7        29.67

$$
MOZ051-052-059>065-250100-
...EAST CENTRAL MISSOURI...

CITY           SKY/WX    TMP DP  RH WIND       PRES   REMARKS
ST LOUIS INTL  MOCLDY    66  36  32 S12       29.62R
6HR MIN TEMP:  65; 6HR MAX TEMP:  74;

SPIRIT OF STL  PTCLDY    69  35  28 SW9       29.61R
6HR MIN TEMP:  69; 6HR MAX TEMP:  74;

ST CHARLES     PTCLDY    66  35  31 S9        29.60S
6HR MIN TEMP:  64; 6HR MAX TEMP:  75;


$$
MOZ072>076-082>087-097>100-106>115-250100-
...SOUTH CENTRAL AND SOUTHEAST MISSOURI...

CITY           SKY/WX    TMP DP  RH WIND       PRES   REMARKS
CAPE GIRARDEAU CLEAR     56  37  49 S14       29.79R
6HR MIN TEMP:  55; 6HR MAX TEMP:  61;

FARMINGTON     CLEAR     59  36  42 S13       29.72R
6HR MIN TEMP:  59; 6HR MAX TEMP:  69;

POPLAR BLUFF   CLEAR     54  37  52 S7        29.79R
6HR MIN TEMP:  54; 6HR MAX TEMP:  65;

WEST PLAINS    MOCLDY    64  33  31 S10       29.76R
6HR MIN TEMP:  64; 6HR MAX TEMP:  69;


$$



USA.gov is the U.S. government's official web portal to all federal, state and local government web resources and services.